Location: Bothwell
(42.3833°S, 147.0000°E)
Time: 03:40:54
(UTC+11:00)

DIWATA 2B (PO-101) - Pass Details

Date: 30 September 2022
Orbit: 582 x 598 km, 98.0° (Epoch: 30 November)

Event Time Altitude Azimuth Distance (km) Brightness Sun altitude
Rises 04:35:47 0° 189° (S) 2,848 ? -13.9°
Reaches altitude 10° 04:39:18 10° 220° (SW) 1,936 ? -13.3°
Maximum altitude 04:40:48 12° 241° (WSW) 1,817 ? -13.1°
Enters shadow 04:40:57 12° 244° (WSW) 1,818 ? -13.0°
